Year,Month,Day,Hour,Minute,Value (Times are PST for temperature in C)
2012,06,19,11,03,13.90
2012,06,19,11,04,14.00
2012,06,19,11,05,14.00
2012,06,19,11,06,14.10
2012,06,19,11,07,14.20
2012,06,19,11,08,14.40
2012,06,19,11,09,14.50
2012,06,19,11,10,14.50
2012,06,19,11,11,14.50
2012,06,19,11,12,14.50
2012,06,19,11,13,14.40
2012,06,19,11,14,14.40
2012,06,19,11,15,14.40
2012,06,19,11,16,14.40
2012,06,19,11,17,14.40
2012,06,19,11,18,14.50
2012,06,19,11,19,14.50
2012,06,19,11,20,14.60
2012,06,19,11,21,14.60
2012,06,19,11,22,14.60
2012,06,19,11,23,14.60
2012,06,19,11,24,14.70
2012,06,19,11,25,14.80
2012,06,19,11,26,14.90
2012,06,19,11,27,15.00
2012,06,19,11,28,15.00
2012,06,19,11,29,15.00
2012,06,19,11,30,14.90
2012,06,19,11,31,14.80
2012,06,19,11,32,14.80
2012,06,19,11,33,14.80
2012,06,19,11,34,14.80
2012,06,19,11,35,14.80
2012,06,19,11,36,14.80
2012,06,19,11,37,14.70
2012,06,19,11,38,14.60
2012,06,19,11,39,14.60
2012,06,19,11,40,14.50
2012,06,19,11,41,14.40
2012,06,19,11,42,14.40
2012,06,19,11,43,14.30
2012,06,19,11,44,14.30
2012,06,19,11,45,14.30
2012,06,19,11,46,14.40
2012,06,19,11,47,14.40
2012,06,19,11,48,14.40
2012,06,19,11,49,14.40
2012,06,19,11,50,14.50
2012,06,19,11,51,14.50
2012,06,19,11,52,14.50
2012,06,19,11,53,14.40
2012,06,19,11,54,14.50
2012,06,19,11,55,14.50
2012,06,19,11,56,14.60
2012,06,19,11,57,14.60
2012,06,19,11,58,14.60
2012,06,19,11,59,14.60
2012,06,19,12,00,14.60
2012,06,19,12,01,14.60
2012,06,19,12,02,14.60
2012,06,19,12,03,14.70
2012,06,19,12,04,14.80
2012,06,19,12,05,15.00
2012,06,19,12,06,15.10
2012,06,19,12,07,15.30
2012,06,19,12,08,15.30
2012,06,19,12,09,15.30
2012,06,19,12,10,15.30
2012,06,19,12,11,15.30
2012,06,19,12,12,15.30
2012,06,19,12,13,15.40
2012,06,19,12,14,15.40
2012,06,19,12,15,15.30
2012,06,19,12,16,15.20
2012,06,19,12,17,15.10
2012,06,19,12,18,15.10
2012,06,19,12,19,15.00
2012,06,19,12,20,15.00
2012,06,19,12,21,14.90
2012,06,19,12,22,14.90
2012,06,19,12,23,14.80
2012,06,19,12,24,14.90
2012,06,19,12,25,15.00
2012,06,19,12,26,15.10
2012,06,19,12,27,15.10
2012,06,19,12,28,15.20
2012,06,19,12,29,15.20
2012,06,19,12,30,15.20
2012,06,19,12,31,15.20
2012,06,19,12,32,15.20
2012,06,19,12,33,15.20
2012,06,19,12,34,15.30
2012,06,19,12,35,15.40
2012,06,19,12,36,15.50
2012,06,19,12,37,15.60
2012,06,19,12,38,15.50
2012,06,19,12,39,15.60
2012,06,19,12,40,15.60
2012,06,19,12,41,15.60
2012,06,19,12,42,15.70
2012,06,19,12,43,15.70
2012,06,19,12,44,15.70
2012,06,19,12,45,15.70
2012,06,19,12,46,15.70
2012,06,19,12,47,15.70
2012,06,19,12,48,15.60
2012,06,19,12,49,15.60
2012,06,19,12,50,15.50
2012,06,19,12,51,15.50
2012,06,19,12,52,15.40
2012,06,19,12,53,15.40
2012,06,19,12,54,15.40
2012,06,19,12,55,15.40
2012,06,19,12,56,15.40
2012,06,19,12,57,15.30
2012,06,19,12,58,15.30
2012,06,19,12,59,15.40
2012,06,19,13,00,15.40
2012,06,19,13,01,15.40
2012,06,19,13,02,15.40
2012,06,19,13,03,15.30
2012,06,19,13,04,15.20
2012,06,19,13,05,15.20
2012,06,19,13,06,15.10
2012,06,19,13,07,15.10
2012,06,19,13,08,15.10
2012,06,19,13,09,15.10
2012,06,19,13,10,15.20
2012,06,19,13,11,15.20
2012,06,19,13,12,15.30
2012,06,19,13,13,15.40
2012,06,19,13,14,15.30
2012,06,19,13,15,15.30
2012,06,19,13,16,15.30
2012,06,19,13,17,15.30
2012,06,19,13,18,15.30
2012,06,19,13,19,15.30
2012,06,19,13,20,15.30
2012,06,19,13,21,15.30
2012,06,19,13,22,15.30
2012,06,19,13,23,15.30
2012,06,19,13,24,15.30
2012,06,19,13,25,15.30
2012,06,19,13,26,15.30
2012,06,19,13,27,15.40
2012,06,19,13,28,15.40
2012,06,19,13,29,15.40
2012,06,19,13,30,15.50
2012,06,19,13,31,15.50
2012,06,19,13,32,15.60
2012,06,19,13,33,15.60
2012,06,19,13,34,15.60
2012,06,19,13,35,15.70
2012,06,19,13,36,15.80
2012,06,19,13,37,15.80
2012,06,19,13,38,15.80
2012,06,19,13,39,15.80
2012,06,19,13,40,15.80
2012,06,19,13,41,15.80
2012,06,19,13,42,15.80
2012,06,19,13,43,15.80
2012,06,19,13,44,15.80
2012,06,19,13,45,15.80
2012,06,19,13,46,15.80
2012,06,19,13,47,15.70
2012,06,19,13,48,15.70
2012,06,19,13,49,15.70
2012,06,19,13,50,15.70
2012,06,19,13,51,15.70
2012,06,19,13,52,15.70
2012,06,19,13,53,15.70
2012,06,19,13,54,15.70
2012,06,19,13,55,15.60
2012,06,19,13,56,15.60
2012,06,19,13,57,15.60
2012,06,19,13,58,15.60
2012,06,19,13,59,15.60
2012,06,19,14,00,15.60
2012,06,19,14,01,15.60
2012,06,19,14,02,15.50
2012,06,19,14,03,15.50
2012,06,19,14,04,15.50
2012,06,19,14,05,15.50
2012,06,19,14,06,15.50
2012,06,19,14,07,15.50
2012,06,19,14,08,15.60
2012,06,19,14,09,15.60
2012,06,19,14,10,15.70
2012,06,19,14,11,15.80
2012,06,19,14,12,15.80
2012,06,19,14,13,15.80
2012,06,19,14,14,15.80
2012,06,19,14,15,15.80
2012,06,19,14,16,15.80
2012,06,19,14,17,15.90
2012,06,19,14,18,16.00
2012,06,19,14,19,16.10
2012,06,19,14,20,16.10
2012,06,19,14,21,16.10
2012,06,19,14,22,16.20
2012,06,19,14,23,16.30
2012,06,19,14,24,16.40
2012,06,19,14,25,16.30
2012,06,19,14,26,16.20
2012,06,19,14,27,16.00
2012,06,19,14,28,15.90
2012,06,19,14,29,15.80
2012,06,19,14,30,15.80
2012,06,19,14,31,15.80
2012,06,19,14,32,15.80
2012,06,19,14,33,15.80
2012,06,19,14,34,15.80
2012,06,19,14,35,15.80
2012,06,19,14,36,15.80
2012,06,19,14,37,15.80
2012,06,19,14,38,15.80
2012,06,19,14,39,15.90
2012,06,19,14,40,16.00
2012,06,19,14,41,16.10
2012,06,19,14,42,16.10
2012,06,19,14,43,16.10
2012,06,19,14,44,16.10
2012,06,19,14,45,16.10
2012,06,19,14,46,16.10
2012,06,19,14,47,16.10
2012,06,19,14,48,16.10
2012,06,19,14,49,16.10
2012,06,19,14,50,16.10
2012,06,19,14,51,16.10
2012,06,19,14,52,16.10
2012,06,19,14,53,16.10
2012,06,19,14,54,16.10
2012,06,19,14,55,16.10
2012,06,19,14,56,16.00
2012,06,19,14,57,16.10
2012,06,19,14,58,16.10
2012,06,19,14,59,16.10
2012,06,19,15,00,16.10
2012,06,19,15,01,16.20
2012,06,19,15,02,16.20
2012,06,19,15,03,16.30
2012,06,19,15,04,16.30
2012,06,19,15,05,16.40
2012,06,19,15,06,16.40
2012,06,19,15,07,16.40
2012,06,19,15,08,16.60
2012,06,19,15,09,16.60
2012,06,19,15,10,16.70
2012,06,19,15,11,16.70
2012,06,19,15,12,16.80
2012,06,19,15,13,16.80
2012,06,19,15,14,16.80
2012,06,19,15,15,16.60
2012,06,19,15,16,16.40
2012,06,19,15,17,16.30
2012,06,19,15,18,16.30
2012,06,19,15,19,16.30
2012,06,19,15,20,16.20
2012,06,19,15,21,16.20
2012,06,19,15,22,16.20
2012,06,19,15,23,16.20
2012,06,19,15,24,16.20
2012,06,19,15,25,16.30
2012,06,19,15,26,16.30
2012,06,19,15,27,16.40
2012,06,19,15,28,16.40
2012,06,19,15,29,16.40
2012,06,19,15,30,16.60
2012,06,19,15,31,16.70
2012,06,19,15,32,16.70
2012,06,19,15,33,16.80
2012,06,19,15,34,16.80
2012,06,19,15,35,16.70
2012,06,19,15,36,16.60
2012,06,19,15,37,16.50
2012,06,19,15,38,16.40
2012,06,19,15,39,16.40
2012,06,19,15,40,16.40
2012,06,19,15,41,16.30
2012,06,19,15,42,16.30
2012,06,19,15,43,16.30
2012,06,19,15,44,16.20
2012,06,19,15,45,16.20
2012,06,19,15,46,16.20
2012,06,19,15,47,16.10
2012,06,19,15,48,16.10
2012,06,19,15,49,16.20
2012,06,19,15,50,16.20
2012,06,19,15,51,16.30
2012,06,19,15,52,16.40
2012,06,19,15,53,16.40
2012,06,19,15,54,16.40
2012,06,19,15,55,16.40
2012,06,19,15,56,16.50
2012,06,19,15,57,16.60
2012,06,19,15,58,16.60
2012,06,19,15,59,16.60
2012,06,19,16,00,16.60
2012,06,19,16,01,16.50
2012,06,19,16,02,16.40
2012,06,19,16,03,16.40
2012,06,19,16,04,16.40
2012,06,19,16,05,16.50
2012,06,19,16,06,16.60
2012,06,19,16,07,16.60
2012,06,19,16,08,16.70
2012,06,19,16,09,16.70
2012,06,19,16,10,16.80
2012,06,19,16,11,16.80
2012,06,19,16,12,16.90
2012,06,19,16,13,17.00
2012,06,19,16,14,17.00
2012,06,19,16,15,17.10
2012,06,19,16,16,17.20
2012,06,19,16,17,17.20
2012,06,19,16,18,17.30
2012,06,19,16,19,17.40
2012,06,19,16,20,17.40
2012,06,19,16,21,17.40
2012,06,19,16,22,17.30
2012,06,19,16,23,17.30
2012,06,19,16,24,17.30
2012,06,19,16,25,17.30
2012,06,19,16,26,17.30
2012,06,19,16,27,17.30
2012,06,19,16,28,17.30
2012,06,19,16,29,17.40
2012,06,19,16,30,17.60
2012,06,19,16,31,17.70
2012,06,19,16,32,17.70
2012,06,19,16,33,17.70
2012,06,19,16,34,17.60
2012,06,19,16,35,17.50
2012,06,19,16,36,17.50
2012,06,19,16,37,17.50
2012,06,19,16,38,17.50
2012,06,19,16,39,17.60
2012,06,19,16,40,17.70
2012,06,19,16,41,17.70
2012,06,19,16,42,17.80
2012,06,19,16,43,17.80
2012,06,19,16,44,17.90
2012,06,19,16,45,17.90
2012,06,19,16,46,17.90
2012,06,19,16,47,17.90
2012,06,19,16,48,17.90
2012,06,19,16,49,17.80
2012,06,19,16,50,17.70
2012,06,19,16,51,17.60
2012,06,19,16,52,17.50
2012,06,19,16,53,17.40
2012,06,19,16,54,17.30
2012,06,19,16,55,17.30
2012,06,19,16,56,17.30
2012,06,19,16,57,17.30
2012,06,19,16,58,17.30
2012,06,19,16,59,17.30
2012,06,19,17,00,17.20
2012,06,19,17,01,17.20
2012,06,19,17,02,17.10
2012,06,19,17,03,17.10
2012,06,19,17,04,17.10
2012,06,19,17,05,17.20
2012,06,19,17,06,17.10
2012,06,19,17,07,17.10
2012,06,19,17,08,17.10
2012,06,19,17,09,17.10
2012,06,19,17,10,17.10
2012,06,19,17,11,17.20
2012,06,19,17,12,17.20
2012,06,19,17,13,17.30
2012,06,19,17,14,17.30
2012,06,19,17,15,17.40
2012,06,19,17,16,17.50
2012,06,19,17,17,17.50
2012,06,19,17,18,17.60
2012,06,19,17,19,17.60
2012,06,19,17,20,17.50
2012,06,19,17,21,17.50
2012,06,19,17,22,17.50
2012,06,19,17,23,17.50
2012,06,19,17,24,17.50
2012,06,19,17,25,17.50
2012,06,19,17,26,17.50
2012,06,19,17,27,17.40
2012,06,19,17,28,17.30
2012,06,19,17,29,17.30
2012,06,19,17,30,17.20
2012,06,19,17,31,17.10
2012,06,19,17,32,17.10
2012,06,19,17,33,17.10
2012,06,19,17,34,17.00
2012,06,19,17,35,17.00
2012,06,19,17,36,16.90
2012,06,19,17,37,16.90
2012,06,19,17,38,16.90
2012,06,19,17,39,16.80
2012,06,19,17,40,16.80
2012,06,19,17,41,16.80
2012,06,19,17,42,16.80
2012,06,19,17,43,16.80
2012,06,19,17,44,16.80
2012,06,19,17,45,16.90
2012,06,19,17,46,16.90
2012,06,19,17,47,16.90
2012,06,19,17,48,16.90
2012,06,19,17,49,17.00
2012,06,19,17,50,17.00
2012,06,19,17,51,17.00
2012,06,19,17,52,17.10
2012,06,19,17,53,17.10
2012,06,19,17,54,17.10
2012,06,19,17,55,17.10
2012,06,19,17,56,17.10
2012,06,19,17,57,17.10
2012,06,19,17,58,17.10
2012,06,19,17,59,17.10
2012,06,19,18,00,17.10
2012,06,19,18,01,17.10
2012,06,19,18,02,17.10
2012,06,19,18,03,17.00
2012,06,19,18,04,17.00
2012,06,19,18,05,17.00
2012,06,19,18,06,17.00
2012,06,19,18,07,17.00
2012,06,19,18,08,17.00
2012,06,19,18,09,17.10
2012,06,19,18,10,17.10
2012,06,19,18,11,17.20
2012,06,19,18,12,17.30
2012,06,19,18,13,17.30
2012,06,19,18,14,17.30
2012,06,19,18,15,17.40
2012,06,19,18,16,17.30
2012,06,19,18,17,17.30
2012,06,19,18,18,17.30
2012,06,19,18,19,17.30
2012,06,19,18,20,17.30
2012,06,19,18,21,17.40
2012,06,19,18,22,17.40
2012,06,19,18,23,17.40
2012,06,19,18,24,17.40
2012,06,19,18,25,17.40
2012,06,19,18,26,17.30
2012,06,19,18,27,17.30
2012,06,19,18,28,17.30
2012,06,19,18,29,17.30
2012,06,19,18,30,17.20
2012,06,19,18,31,17.20
2012,06,19,18,32,17.10
2012,06,19,18,33,17.10
2012,06,19,18,34,17.00
2012,06,19,18,35,17.00
2012,06,19,18,36,17.00
2012,06,19,18,37,17.00
2012,06,19,18,38,16.90
2012,06,19,18,39,16.90
2012,06,19,18,40,16.90
2012,06,19,18,41,16.90
2012,06,19,18,42,16.90
2012,06,19,18,43,16.90
2012,06,19,18,44,16.90
2012,06,19,18,45,16.90
2012,06,19,18,46,17.00
2012,06,19,18,47,17.00
2012,06,19,18,48,17.00
2012,06,19,18,49,17.10
2012,06,19,18,50,17.10
2012,06,19,18,51,17.20
2012,06,19,18,52,17.20
2012,06,19,18,53,17.20
2012,06,19,18,54,17.20
2012,06,19,18,55,17.20
2012,06,19,18,56,17.20
2012,06,19,18,57,17.20
2012,06,19,18,58,17.20
2012,06,19,18,59,17.00
2012,06,19,19,00,17.00
2012,06,19,19,01,16.90
2012,06,19,19,02,16.80
2012,06,19,19,03,16.80
2012,06,19,19,04,16.70
2012,06,19,19,05,16.70
2012,06,19,19,06,16.70
2012,06,19,19,07,16.70
2012,06,19,19,08,16.60
2012,06,19,19,09,16.60
2012,06,19,19,10,16.60
2012,06,19,19,11,16.60
2012,06,19,19,12,16.60
2012,06,19,19,13,16.60
2012,06,19,19,14,16.50
2012,06,19,19,15,16.40
2012,06,19,19,16,16.40
2012,06,19,19,17,16.40
2012,06,19,19,18,16.40
2012,06,19,19,19,16.40
2012,06,19,19,20,16.40
2012,06,19,19,21,16.40
2012,06,19,19,22,16.40
2012,06,19,19,23,16.30
2012,06,19,19,24,16.30
2012,06,19,19,25,16.20
2012,06,19,19,26,16.20
2012,06,19,19,27,16.10
2012,06,19,19,28,16.10
2012,06,19,19,29,16.10
2012,06,19,19,30,16.10
2012,06,19,19,31,16.10
2012,06,19,19,32,16.10
2012,06,19,19,33,16.10
2012,06,19,19,34,16.20
2012,06,19,19,35,16.20
2012,06,19,19,36,16.20
2012,06,19,19,37,16.30
2012,06,19,19,38,16.30
2012,06,19,19,39,16.30
2012,06,19,19,40,16.30
2012,06,19,19,41,16.40
2012,06,19,19,42,16.40
2012,06,19,19,43,16.40
2012,06,19,19,44,16.40
2012,06,19,19,45,16.40
2012,06,19,19,46,16.40
2012,06,19,19,47,16.30
2012,06,19,19,48,16.30
2012,06,19,19,49,16.20
2012,06,19,19,50,16.20
2012,06,19,19,51,16.20
2012,06,19,19,52,16.10
2012,06,19,19,53,16.10
2012,06,19,19,54,16.10
2012,06,19,19,55,16.10
2012,06,19,19,56,16.10
2012,06,19,19,57,16.10
2012,06,19,19,58,16.00
2012,06,19,19,59,15.90
2012,06,19,20,00,15.90
2012,06,19,20,01,15.90
2012,06,19,20,02,15.90
2012,06,19,20,03,15.90
2012,06,19,20,04,15.90
2012,06,19,20,05,15.80
2012,06,19,20,06,15.80
2012,06,19,20,07,15.80
2012,06,19,20,08,15.80
2012,06,19,20,09,15.80
2012,06,19,20,10,15.80
2012,06,19,20,11,15.80
2012,06,19,20,12,15.80
2012,06,19,20,13,15.80
2012,06,19,20,14,15.80
2012,06,19,20,15,15.80
2012,06,19,20,16,15.80
2012,06,19,20,17,15.80
2012,06,19,20,18,15.70
2012,06,19,20,19,15.70
2012,06,19,20,20,15.70
2012,06,19,20,21,15.70
2012,06,19,20,22,15.70
2012,06,19,20,23,15.60
2012,06,19,20,24,15.60
2012,06,19,20,25,15.60
2012,06,19,20,26,15.60
2012,06,19,20,27,15.50
2012,06,19,20,28,15.50
2012,06,19,20,29,15.50
2012,06,19,20,30,15.40
2012,06,19,20,31,15.40
2012,06,19,20,32,15.30
2012,06,19,20,33,15.30
2012,06,19,20,34,15.30
2012,06,19,20,35,15.30
2012,06,19,20,36,15.30
2012,06,19,20,37,15.30
2012,06,19,20,38,15.20
2012,06,19,20,39,15.20
2012,06,19,20,40,15.20
2012,06,19,20,41,15.10
2012,06,19,20,42,15.10
2012,06,19,20,43,15.10
2012,06,19,20,44,15.10
2012,06,19,20,45,15.10
2012,06,19,20,46,15.10
2012,06,19,20,47,15.10
2012,06,19,20,48,15.10
2012,06,19,20,49,15.10
2012,06,19,20,50,15.10
2012,06,19,20,51,15.10
